Temperature
13 13 13 13 13 13 13 14 14 15 15 14 14 14 14 15 15 15 15 15 16 16 16 16 16 16 16 16 16 16 16 16 16 15 15 15 15 15
13 13 13 13 13 13 13 13 13 14 14 14 14 14 14 14 15 15 15 15 15 15 15 15 15 15 15 15 15 15 15 15 15 15 15 15 15 15
12 12 12 12 13 13 13 13 13 13 14 14 14 14 14 14 14 14 15 15 15 15 15 15 15 15 15 15 15 15 15 15 15 15 15 15 15 14
12 12 12 12 12 13 13 13 13 13 13 13 13 13 13 13 14 14 14 14 15 15 15 15 15 15 15 15 15 15 15 15 15 15 15 15 15 14
12 12 12 12 12 12 12 13 13 13 13 13 13 13 13 13 13 14 14 14 14 14 14 14 15 15 14 15 15 14 14 15 15 15 15 14 14 14
12 12 12 12 12 12 12 12 12 12 12 13 13 13 13 13 13 13 13 14 14 14 14 14 14 14 14 14 14 14 14 14 14 14 14 14 14 14
12 12 12 12 12 12 12 12 12 12 12 12 12 13 13 13 13 13 13 13 13 13 14 14 14 14 14 14 14 14 14 14 14 14 14 14 14 14
12 12 12 12 12 12 13 12 12 12 12 12 12 12 12 12 12 12 12 13 13 13 13 13 13 13 13 13 14 14 14 14 14 14 14 14 14 14
12 12 12 12 12 12 12 12 12 12 12 12 12 12 12 12 12 12 12 12 12 12 13 13 13 13 13 13 13 14 14 14 14 14 14 14 13 13
12 12 12 12 12 12 12 12 12 12 12 12 12 12 12 12 12 12 12 12 12 12 12 12 13 13 13 13 13 13 14 13 13 13 13 13 13 13
12 12 12 12 12 12 12 12 12 12 12 12 12 12 12 12 12 12 12 12 12 12 12 12 12 12 12 13 13 13 13 13 13 13 13 13 13 13
12 12 12 12 12 12 12 12 12 12 12 12 12 12 12 12 12 12 12 12 12 12 12 12 12 11 12 12 12 12 13 13 13 13 13 13 12 12
12 12 12 12 12 12 12 12 12 12 12 12 11 12 12 12 12 12 12 12 12 12 12 12 11 11 11 12 12 12 12 12 12 12 12 12 12 12
12 12 12 12 12 12 12 12 12 12 12 11 11 11 11 11 11 11 11 11 11 11 12 11 11 11 11 11 11 12 12 12 12 12 12 12 12 12
12 12 12 12 12 12 12 12 12 11 11 11 11 11 11 11 11 11 11 11 11 11 11 11 11 11 11 11 11 11 11 11 11 11 11 11 11 11
12 12 12 12 12 12 12 11 11 11 11 11 11 11 11 11 11 11 11 11 11 11 11 11 11 11 11 11 11 11 11 11 11 11 11 11 11 11
12 11 11 11 11 11 11 11 11 11 11 11 11 10 10 10 10 10 10 10 10 10 10 10 10 10 10 10 10 10 10 11 11 11 10 11 11 11
11 11 10 10 10 10 10 10 10 10 10 10 10 10 10 10 10 10 10 10 10 10 10 10 10 10 10 10 10 10 10 10 10 10 10 10 10 10
10 10 10 10 10 10 10 10 9 9 9 9 9 9 9 9 9 9 9 9 9 9 9 9 9 9 9 10 10 10 10 10 10 10 10 10 10 10
10 9 9 9 9 9 9 9 9 9 9 9 9 8 8 8 8 9 9 9 9 9 9 9 9 9 9 9 9 10 10 9 9 9 9 10 10 10
8 8 8 8 8 8 8 8 8 8 8 8 8 8 8 8 8 8 8 8 8 8 8 8 8 8 8 8 8 9 9 9 9 9 9 9 9 9
8 7 7 7 7 7 7 7 7 7 7 7 7 7 7 7 7 7 7 7 7 7 7 8 8 8 8 8 8 8 9 9 9 9 9 9 8 9
6 6 6 6 6 6 6 6 6 5 6 6 6 6 6 6 6 6 6 6 6 6 6 7 7 7 7 7 7 8 8 8 8 8 8 9 8 8
Wind_Speed
2 3 2 2 2 2 3 2 3 3 2 2 2 2 2 2 2 4 6 8 10 11 11 11 11 11 12 13 13 12 13 13 14 14 15 15 14 14
1 2 2 2 2 2 3 3 3 3 2 1 1 1 2 3 3 4 4 5 9 10 11 11 12 12 12 12 13 13 13 13 13 14 15 15 15 15
1 1 2 2 2 2 2 2 2 2 2 2 1 1 2 2 2 3 3 5 6 9 9 10 11 12 12 12 13 13 13 13 13 13 14 15 16 16
0 1 2 1 2 2 2 3 2 3 3 3 2 1 2 2 2 3 3 3 4 6 8 9 10 11 11 12 13 13 14 14 14 14 14 14 15 16
0 1 1 2 2 2 3 3 2 2 2 3 3 2 2 2 2 3 3 3 4 5 8 10 10 11 11 12 12 13 13 14 14 15 15 15 15 15
0 1 1 1 2 2 3 3 3 3 3 3 3 3 2 2 3 3 3 3 3 3 4 5 7 10 12 12 13 13 14 14 14 15 15 15 15 15
0 0 1 1 3 2 3 3 3 3 3 3 3 3 3 3 3 2 3 3 4 3 3 4 5 6 8 12 14 14 14 14 15 15 15 16 16 15
1 0 0 1 2 2 3 3 4 4 4 4 4 4 4 4 3 3 4 4 3 2 4 4 5 6 6 7 9 12 14 15 15 16 16 16 16 16
1 1 0 0 2 3 4 6 5 6 6 6 6 6 5 4 4 5 5 5 5 3 4 5 5 6 5 6 9 12 13 14 15 16 16 16 17 17
1 1 1 1 1 2 3 3 4 4 5 6 6 6 5 4 5 6 6 5 5 4 4 5 5 5 5 6 9 12 13 14 15 15 16 16 17 17
1 1 2 2 2 3 3 3 3 3 3 5 6 6 5 6 6 5 5 5 5 4 4 4 4 5 5 6 6 10 12 13 14 14 15 16 16 16
1 1 1 2 2 3 4 4 4 3 3 3 5 6 6 6 9 8 7 6 5 4 4 4 4 3 4 4 4 5 8 11 14 14 15 15 15 12
2 2 1 1 2 3 6 4 4 5 5 4 4 4 4 4 5 6 6 6 7 6 4 4 4 5 5 5 5 5 5 5 7 9 13 15 16 13
3 2 1 2 2 3 3 3 4 5 4 4 4 4 4 4 4 5 6 6 7 8 7 6 5 6 6 6 6 5 5 6 6 6 7 9 13 16
3 2 3 2 4 3 2 3 4 4 3 4 4 4 3 4 4 4 5 5 6 7 7 7 7 7 7 7 6 6 6 6 6 6 6 6 7 7
3 2 4 3 3 2 2 2 3 2 3 4 4 4 3 3 4 4 4 4 5 5 6 7 8 8 8 8 8 8 7 6 5 6 7 7 7 8
2 1 1 1 1 1 1 2 2 2 3 3 4 4 4 4 4 4 3 4 5 5 5 5 5 6 8 8 8 9 8 8 8 7 7 8 8 8
1 0 1 1 2 3 3 3 3 3 4 4 4 4 4 4 5 4 4 4 5 6 5 5 4 5 5 7 9 10 9 8 7 7 7 8 9 8
1 1 1 2 2 3 3 3 3 4 4 4 4 4 4 5 5 5 5 5 6 6 6 5 5 5 7 9 6 8 8 8 7 7 8 8 9 8
3 3 3 3 3 3 3 3 3 4 4 4 4 5 5 5 5 6 6 6 7 7 7 6 5 6 7 9 8 7 9 9 8 8 8 7 8 7
3 3 3 3 3 3 4 4 4 4 5 5 5 5 5 6 6 6 7 7 7 7 8 7 7 7 8 7 8 8 8 9 9 8 8 7 7 7
4 4 4 4 4 4 4 4 4 4 5 5 5 6 6 6 7 8 7 7 7 8 9 8 8 7 7 8 10 11 10 8 8 10 11 11 8 8
3 3 3 4 4 4 4 5 5 5 5 6 6 6 7 7 7 7 8 8 8 9 9 9 8 7 8 9 10 10 12 11 8 8 9 10 14 15
Wind_Direction
252 230 226 222 234 238 243 242 249 247 228 186 181 197 224 223 180 222 220 191 202 210 214 217 218 219 220 218 219 222 224 224 223 222 223 223 222 223
259 243 229 228 228 228 234 238 251 259 256 253 239 221 230 234 206 234 233 189 205 209 214 216 216 218 220 220 218 218 221 223 223 223 223 224 225 224
231 239 242 247 237 227 226 226 237 246 240 266 281 249 231 234 225 236 235 230 216 198 207 213 215 218 220 222 220 219 219 220 223 224 224 225 225 224
218 238 243 232 241 240 233 228 229 237 232 246 259 268 269 246 245 247 245 237 237 193 203 213 216 217 221 221 220 219 219 221 223 223 224 223 223 222
257 235 244 225 227 225 228 228 230 232 235 242 262 282 271 253 251 249 240 238 243 212 204 213 218 219 221 221 221 222 223 224 223 223 223 222 222 222
289 260 259 251 245 236 233 228 228 230 229 230 239 247 257 257 254 256 257 242 242 235 223 223 215 217 222 222 222 223 223 223 223 223 222 221 221 224
27 331 331 343 348 312 281 254 236 233 234 234 237 241 244 245 256 268 269 268 257 240 244 239 226 227 221 220 221 223 224 225 224 222 221 221 222 224
64 11 202 205 207 236 280 300 294 260 248 245 245 245 251 253 258 259 266 266 264 230 252 255 246 244 240 234 215 213 222 226 226 224 223 224 226 227
348 4 1 329 253 244 217 217 235 244 259 268 262 259 258 255 257 255 252 257 268 264 262 259 246 249 248 237 213 217 224 227 228 227 229 228 228 229
287 283 280 295 305 289 261 254 260 247 241 249 262 269 271 266 256 260 266 263 273 258 242 258 259 261 262 248 218 218 223 228 230 231 231 231 231 231
277 294 295 294 51 308 266 263 272 265 220 244 280 284 295 273 258 251 247 248 265 262 242 248 264 274 270 258 231 216 224 228 231 232 233 233 231 232
258 241 92 328 354 297 271 269 274 287 284 259 245 236 245 234 221 237 245 247 259 260 229 234 261 275 272 253 244 235 230 228 228 232 234 234 230 234
287 284 350 93 311 294 285 285 304 301 283 277 277 273 262 254 242 242 243 247 253 258 244 237 254 255 257 270 268 257 251 251 240 237 231 229 227 227
287 296 356 68 299 285 284 324 308 284 271 270 275 279 280 278 272 270 264 256 255 262 260 250 253 255 260 267 270 266 258 255 253 253 247 227 223 227
284 8 355 320 279 249 222 277 273 269 275 277 283 292 298 298 294 289 282 274 273 266 254 249 248 253 256 261 265 267 272 266 251 250 251 245 240 232
254 196 205 233 247 286 283 260 280 301 295 290 295 295 294 288 283 285 287 288 283 277 261 250 247 248 256 261 264 267 265 260 255 253 253 252 247 241
294 262 278 295 303 325 329 334 325 318 306 302 299 299 299 294 292 291 287 287 284 286 284 277 265 259 259 264 265 264 264 263 259 255 255 256 251 245
265 196 17 3 353 350 349 348 344 341 333 325 318 314 309 307 306 301 291 285 286 287 287 287 283 280 276 262 240 257 263 264 263 254 250 256 261 254
85 47 29 16 2 355 353 350 345 342 335 328 323 321 318 312 307 303 299 294 289 287 286 282 275 271 275 280 266 230 257 270 268 261 254 254 262 264
55 41 29 18 12 4 358 353 349 345 339 335 333 330 324 317 312 309 304 304 300 295 291 285 279 274 275 283 287 277 243 257 265 265 264 264 266 272
55 47 36 25 16 11 4 358 354 350 347 341 338 333 328 322 317 312 309 308 301 297 296 294 296 289 285 283 278 277 271 242 250 265 272 268 269 267
51 46 38 28 20 15 7 360 355 355 351 344 341 335 329 324 320 317 315 312 307 302 300 299 302 294 282 276 279 285 288 284 260 249 254 255 259 262
49 40 34 25 17 8 1 357 355 352 349 342 337 333 330 325 320 316 314 312 310 309 307 304 301 294 287 281 282 284 284 284 282 274 267 252 246 253
Height
1486 1487 1488 1488 1489 1490 1491 1492 1494 1494 1495 1496 1496 1497 1498 1500 1501 1502 1503 1505 1506 1508 1510 1512 1513 1515 1517 1518 1520 1521 1523 1524 1526 1527 1528 1529 1530 1531
1485 1485 1486 1487 1488 1488 1489 1490 1491 1493 1493 1494 1494 1495 1496 1497 1498 1499 1500 1501 1503 1505 1506 1508 1509 1511 1513 1514 1516 1517 1518 1520 1521 1522 1523 1525 1526 1527
1485 1485 1485 1486 1487 1487 1488 1489 1490 1491 1492 1492 1493 1493 1494 1495 1495 1496 1497 1498 1500 1501 1502 1504 1505 1507 1508 1510 1511 1513 1514 1515 1516 1518 1519 1520 1521 1522
1484 1484 1485 1485 1485 1486 1487 1488 1488 1489 1490 1490 1491 1491 1492 1492 1493 1493 1494 1495 1496 1497 1498 1499 1501 1502 1503 1505 1506 1508 1509 1510 1511 1512 1514 1515 1516 1517
1484 1484 1484 1484 1485 1485 1486 1486 1487 1488 1488 1488 1489 1489 1490 1490 1490 1491 1492 1492 1493 1493 1494 1495 1496 1497 1499 1500 1501 1503 1504 1505 1506 1507 1508 1509 1510 1511
1483 1483 1483 1483 1484 1484 1485 1485 1486 1486 1486 1487 1487 1487 1488 1488 1488 1489 1489 1489 1490 1490 1491 1491 1492 1493 1494 1495 1496 1497 1498 1500 1501 1502 1503 1504 1505 1506
1483 1483 1482 1482 1482 1483 1483 1484 1484 1485 1485 1485 1485 1486 1486 1486 1486 1486 1486 1486 1487 1487 1487 1487 1488 1488 1489 1490 1491 1492 1493 1494 1495 1496 1497 1498 1499 1500
1483 1482 1482 1481 1481 1481 1481 1482 1482 1483 1483 1483 1483 1483 1483 1484 1483 1483 1484 1484 1484 1484 1483 1484 1484 1484 1484 1485 1485 1486 1487 1488 1489 1490 1491 1492 1493 1494
1483 1482 1481 1481 1480 1480 1480 1480 1480 1480 1480 1481 1481 1481 1481 1481 1481 1481 1481 1481 1480 1480 1480 1480 1480 1480 1480 1480 1480 1481 1482 1482 1483 1484 1485 1486 1487 1488
1482 1481 1481 1480 1480 1479 1479 1479 1479 1478 1478 1478 1478 1478 1478 1478 1478 1478 1477 1477 1477 1477 1476 1476 1476 1476 1476 1476 1475 1476 1476 1477 1477 1478 1479 1479 1480 1481
1482 1481 1480 1480 1479 1478 1478 1477 1477 1476 1476 1475 1475 1475 1474 1474 1474 1474 1474 1474 1474 1474 1473 1472 1472 1472 1471 1471 1471 1471 1471 1471 1471 1472 1473 1473 1474 1475
1481 1480 1479 1478 1478 1477 1477 1476 1476 1475 1474 1473 1473 1472 1472 1471 1471 1471 1471 1471 1471 1471 1470 1469 1469 1469 1468 1467 1467 1466 1466 1466 1466 1466 1467 1467 1468 1468
1480 1480 1478 1477 1476 1475 1475 1475 1474 1473 1472 1472 1471 1471 1470 1469 1469 1468 1468 1468 1467 1467 1467 1466 1465 1465 1465 1463 1463 1462 1461 1461 1461 1461 1461 1461 1462 1462
1478 1478 1477 1475 1475 1474 1473 1472 1472 1471 1471 1470 1469 1469 1468 1467 1466 1465 1464 1464 1463 1463 1463 1462 1461 1461 1460 1459 1458 1457 1457 1457 1456 1456 1455 1455 1455 1455
1476 1475 1474 1474 1473 1472 1471 1471 1470 1470 1469 1468 1468 1467 1466 1464 1463 1462 1461 1460 1460 1459 1458 1458 1457 1457 1456 1455 1454 1453 1452 1452 1451 1451 1450 1450 1450 1450
1474 1473 1472 1472 1471 1470 1470 1469 1468 1468 1467 1466 1465 1464 1463 1461 1460 1459 1458 1457 1456 1456 1455 1454 1453 1453 1452 1451 1450 1449 1448 1448 1447 1446 1446 1445 1444 1444
1472 1471 1471 1470 1470 1469 1468 1467 1466 1465 1465 1464 1463 1461 1460 1459 1458 1457 1455 1454 1453 1452 1451 1450 1449 1448 1447 1447 1445 1444 1443 1443 1442 1441 1440 1439 1439 1438
1470 1469 1469 1468 1468 1467 1466 1465 1464 1463 1462 1461 1460 1459 1458 1457 1455 1454 1453 1451 1450 1449 1448 1446 1445 1444 1443 1442 1441 1439 1439 1438 1437 1436 1435 1434 1433 1433
1468 1467 1467 1466 1465 1465 1464 1463 1462 1461 1460 1459 1458 1457 1455 1454 1453 1451 1450 1448 1447 1446 1444 1443 1441 1440 1439 1437 1436 1436 1434 1433 1432 1430 1429 1428 1427 1427
1466 1465 1465 1464 1463 1462 1462 1461 1460 1458 1457 1456 1455 1454 1453 1451 1450 1449 1447 1446 1444 1442 1441 1439 1438 1436 1435 1433 1431 1429 1429 1428 1426 1425 1424 1423 1422 1421
1464 1464 1463 1462 1461 1460 1459 1458 1457 1456 1455 1454 1452 1451 1450 1449 1447 1446 1444 1442 1441 1439 1437 1435 1434 1432 1430 1428 1426 1424 1423 1422 1421 1420 1419 1418 1416 1415
1463 1462 1462 1461 1460 1458 1457 1456 1455 1454 1453 1451 1450 1448 1447 1445 1444 1442 1440 1438 1436 1435 1433 1431 1429 1427 1425 1423 1421 1419 1418 1416 1415 1414 1413 1412 1411 1409
1462 1461 1460 1459 1458 1457 1455 1454 1453 1452 1450 1449 1447 1445 1443 1442 1440 1438 1436 1435 1432 1430 1428 1426 1424 1422 1420 1418 1416 1414 1412 1410 1409 1407 1406 1405 1405 1404